Location: Auckland
(36.8670°S, 174.7670°E)
Time: 07:55:03
(UTC+12:00)

A-11 Canister half - Pass Details

Date: 24 July 2019
Orbit: 1526 x 1683 km, 47.3° (Epoch: 23 August)

Event Time Altitude Azimuth Distance (km) Brightness Sun altitude
Rises 16:42:52 0° 247° (WSW) 4,859 12.2 7.3°
Reaches altitude 10° 16:46:58 10° 261° (W) 3,892 12.0 6.6°
Maximum altitude 16:53:48 21° 305° (NW) 3,109 12.5 5.4°
Drops below altitude 10° 17:00:45 10° 349° (N) 3,929 11.8 4.2°
Sets 17:04:57 0° 4° (N) 4,918 12.0 3.5°
